Regional Weather Roundup
Issued by NWS

Home | Current Version | Previous Version | Graphics & Text | Print | Product List | Glossary On
Versions: 1 2 3 4 5 6 7 8 9 10 11 12 13 14 15 16 17 18 19 20 21 22 23 24 25 26 27 28 29 30 31 32 33 34 35 36 37 38 39 40 41 42 43 44 45 46 47 48 49 50
000
ASUS45 KABQ 311210
RWRNM
WEATHER ROUNDUP FOR NEW MEXICO
NATIONAL WEATHER SERVICE ALBUQUERQUE NM
600 AM MDT THU JUL 31 2014

NOTE: "FAIR" MEANS FEW OR NO CLOUDS BELOW 12,000 FEET AGL WITH NO
       SIGNIFICANT WEATHER OR OBSTRUCTIONS TO VISION.

      THIS PRODUCT IS RELEASED AS TWO VERSIONS.  ONE VERSION NEAR
      THE TOP OF THE HOUR CONTAINING PRELIMINARY DATA FROM ALBUQUERQUE
      AND OTHER STATIONS.  A FINAL VERSION WITH ADDITIONAL DATA IS
      ISSUED ABOUT 10 MINUTES AFTER THE HOUR.

NMZ501-503-504-510>518-311300-
NORTHWEST PLATEAU/NORTHCENTRAL MOUNTAINS

CITY           SKY/WX    TMP DP  RH WIND       PRES   REMARKS
FARMINGTON     PTCLDY    67  56  67 E12       30.19R
6HR MIN TEMP:  64; 6HR MAX TEMP:  72;

LOS ALAMOS     CLOUDY    55  55 100 S7        30.39F
SANTA FE         N/A     59  55  87 S10       30.34S
6HR MIN TEMP:  58; 6HR MAX TEMP:  63; 6HR PCP: TRACE;

TAOS           CLOUDY    59  54  82 W7        30.39R
ANGEL FIRE     PTSUNNY   52  50  93 NE5       30.46S

$$
NMZ402-403-502-505>509-311300-
WESTCENTRAL MOUNTAINS/SOUTHWEST MOUNTAINS

CITY           SKY/WX    TMP DP  RH WIND       PRES   REMARKS
GALLUP         LGT RAIN  64  56  75 E10       30.27S
6HR MIN TEMP:  62; 6HR MAX TEMP:  69; 6HR PCP: TRACE;

SILVER CITY    CLOUDY    66  59  77 SW6       30.29R

$$
NMZ407-409-411-412-311300-
SOUTHERN DESERTS

CITY           SKY/WX    TMP DP  RH WIND       PRES   REMARKS
LORDSBURG      CLOUDY    75  54  46 SE13G20   30.18R
DEMING         LGT RAIN  69  64  84 NE8       30.21R
6HR MIN TEMP:  68; 6HR MAX TEMP:  77; 6HR PCP:  0.05;

LAS CRUCES     CLOUDY    68  63  82 SE8       30.22F
HOLLOMAN AFB   CLOUDY    68  68 100 W7        30.18R
ALAMOGORDO     CLOUDY    68  68 100 SW9       30.21R
T OR C         PTCLDY    67  58  72 N10G21    30.23S
6HR MIN TEMP:  67; 6HR MAX TEMP:  72; 6HR PCP: TRACE;


$$
NMZ519>523-311300-
CENTRAL VALLEYS/CENTRAL HIGHLANDS

CITY           SKY/WX    TMP DP  RH WIND       PRES   REMARKS
ALBUQUERQUE    PTCLDY    63  56  78 E13       30.28S
6HR MIN TEMP:  63; 6HR MAX TEMP:  69; 6HR PCP:  0.05;

DOUBLE EAGLE   PTCLDY    61  57  88 S3        30.31
CLINES CORNERS CLOUDY    54  53  97 SE3       30.37F
6HR MIN TEMP:  54; 6HR MAX TEMP:  58; 6HR PCP:  0.01;

BELEN          FAIR      62  59  90 CALM      30.27R
6HR MIN TEMP:  62; 6HR MAX TEMP:  70; 6HR PCP:  0.20;

SOCORRO        FAIR      69  57  65 NW5       30.23F
6HR MIN TEMP:  67; 6HR MAX TEMP:  73;


$$
NMZ524>526-539-540-311300-
SOUTHCENTRAL MOUNTAINS

CITY           SKY/WX    TMP DP  RH WIND       PRES   REMARKS
RUIDOSO        NOT AVBL

$$
NMZ527>531-311300-
NORTHEAST HIGHLANDS/NORTHEAST PLAINS

CITY           SKY/WX    TMP DP  RH WIND       PRES   REMARKS
LAS VEGAS      CLOUDY    55  54  96 W6        30.37S
6HR MIN TEMP:  55; 6HR MAX TEMP:  56; 6HR PCP:  0.03;

RATON          CLOUDY    56  54  93 SW8       30.34S
6HR MIN TEMP:  56; 6HR MAX TEMP:  59; 6HR PCP:  0.18;

CLAYTON        CLEAR     55  53  93 N3        30.30F
6HR MIN TEMP:  54; 6HR MAX TEMP:  60;


$$
NMZ532>537-311300-
EASTCENTRAL PLAINS

CITY           SKY/WX    TMP DP  RH WIND       PRES   REMARKS
TUCUMCARI      CLOUDY    63  57  81 CALM      30.26R
6HR MIN TEMP:  61; 6HR MAX TEMP:  65;

CANNON AFB     PTCLDY    59  57  94 NE7       30.27R
6HR MIN TEMP:  60; 6HR MAX TEMP:  64;

CLOVIS AIRPORT NOT AVBL

$$
NMZ028-029-538-311300-
SOUTHEAST PLAINS

CITY           SKY/WX    TMP DP  RH WIND       PRES   REMARKS
ROSWELL        CLOUDY    68  61  78 NE5       30.23R
6HR MIN TEMP:  67; 6HR MAX TEMP:  72;

ARTESIA        HVY RAIN  64  64 100 NE7       30.23S
CARLSBAD       CLOUDY    68  63  84 N13         N/A
6HR MIN TEMP:  67; 6HR MAX TEMP:  76;

HOBBS          MOCLDY    66  57  72 N18       30.21


$$


USA.gov is the U.S. government's official web portal to all federal, state and local government web resources and services.